アトラス彗星

C/2020 R4 ( ATLAS )

English version
Home page
Updated on February 5, 2022

---------------------------------------------------------------------

・ プロフィール

発見日 2020年9月12日
発見光度 19.7等
発見者 Asteroid Terrestrial-Impact Last Alert System (ATLAS) search program

・ 写真集

・ 軌道要素

Epoch 2022 Jan. 21.0 TT = JDT 2459600.5
T 2021 Mar. 1.96214 TT                                  Rudenko
q   1.0286439            (2000.0)            P               Q
z  +0.0101318      Peri.   46.72059     +0.13004019     -0.97848419
 +/-0.0000001      Node   323.27408     -0.96949432     -0.15933685
e   0.9895780      Incl.  164.46255     -0.20777466     +0.13107423
From 2457 observations 2020 Aug. 29-2022 Jan. 26, mean residual 0".8.

・ 星図

・ 光度変化

        m1 = 13.0 + 5 logΔ + 10.0 log r  [   ,-85]  (              〜2020年12月 6日)
        m1 =  8.5 + 5 logΔ + 15.0 log r  [-85,   ]  (2020年12月 6日〜              )

---------------------------------------------------------------------

軌道要素はM.P.E.C. 2022-C56に掲載されたものです。
星図はステラナビゲータ Ver.10 (アストロアーツ) で作成したものです。
光度グラフはComet for Windowsで作成したものです。

---------------------------------------------------------------------

Copyright(C) Seiichi Yoshida (comet@aerith.net). All rights reserved.